Location: Miami, Florida
(25.6830°N, 80.1700°W)
Time: 17:39:59
(UTC-04:00)

Hubble Space Telescope - Pass Details

Date: 18 November 2017
Orbit: 537 x 541 km, 28.5° (Epoch: 17 November)

Event Time Altitude Azimuth Distance (km) Brightness Sun altitude
Exits shadow 05:28:50 30° 94° (E) 961 2.6 -29.5°
Drops below altitude 10° 05:31:06 10° 82° (E) 1,780 4.3 -29.0°
Sets 05:33:23 0° 78° (ENE) 2,672 5.4 -28.5°
